Regional Weather Roundup
Issued by NWS New Orleans/Baton Rouge, LA

Home | Current Version | Previous Version | Text Only | Print | Product List | Glossary On
Versions: 1 2 3 4 5 6 7 8 9 10 11 12 13 14 15 16 17 18 19 20 21 22 23 24 25 26 27 28 29 30 31 32 33 34 35 36 37 38 39 40 41 42 43 44 45 46 47 48 49 50
000
ASUS44 KLIX 181210
RWRLIX
NEW ORLEANS REGIONAL WEATHER ROUNDUP
NATIONAL WEATHER SERVICE NEW ORLEANS LA
700 AM CDT FRI APR 18 2014

NOTE: "FAIR" INDICATES FEW OR NO CLOUDS BELOW 12,000 FEET WITH NO
      SIGNIFICANT WEATHER AND/OR OBSTRUCTIONS TO VISIBILITY.
      SKY/WX - SKY CONDITION AND SIGNIFICANT WEATHER.
      TMP - AIR TEMPERATURE.     DP    - DEWPOINT TEMPERATURE.
      RH  - RELATIVE HUMIDITY.   PRES  - PRESSURE.
      HI  - HEAT INDEX.          WCI   - WIND CHILL INDEX.

*  THESE STATIONS ARE NOT NWS OR FAA STATIONS AND ARE NOT UNDER
   NWS QUALITY CONTROL.

LAZ038-040-048-061>063-065>067-069-181300-
SOUTHEAST LOUISIANA

CITY           SKY/WX    TMP DP  RH WIND       PRES   REMARKS
N.O. AUDUBON     N/A     63 N/A N/A MISG        N/A
6HR MIN TEMP:  61; 6HR MAX TEMP:  66; 6HR PCP:  0.02;

N.O. INTL ARPT DRIZZLE   61  60  97 N9        30.09R FOG
6HR MIN TEMP:  61; 6HR MAX TEMP:  64; 6HR PCP: TRACE;

N.O. LAKEFRONT CLOUDY    62  60  93 N15       30.10R
6HR MIN TEMP:  62; 6HR MAX TEMP:  63; 6HR PCP:  0.02;

N.O. DOWNTOWN* CLOUDY    63  55  77 N7        30.09R
6HR MIN TEMP:  61; 6HR MAX TEMP:  63;

SLIDELL        CLOUDY    61  59  93 N7        30.08R
6HR MIN TEMP:  61; 6HR MAX TEMP:  62; 6HR PCP:  0.04;

BATON ROUGE    CLOUDY    61  55  81 CALM      30.12R
6HR MIN TEMP:  60; 6HR MAX TEMP:  63;

BOOTHVILLE     CLOUDY    63  60  90 N8        30.04R
6HR MIN TEMP:  63; 6HR MAX TEMP:  63;

BELLE CHASSE   LGT RAIN  62  58  86 N6        30.08R FOG
6HR MIN TEMP:  62; 6HR MAX TEMP:  63;

BOGALUSA*        N/A     62  58  88 N3        30.11S
6HR MIN TEMP:  61; 6HR MAX TEMP:  64;

GALLIANO*      LGT RAIN  63  61  92 NW10      30.07R
6HR MIN TEMP:  63; 6HR MAX TEMP:  64;

NEW ROADS*       N/A     57  55  92 N5        30.14R
6HR MIN TEMP:  56; 6HR MAX TEMP:  61;

GONZALES*      CLOUDY    61  57  88 N5        30.11R
6HR MIN TEMP:  61; 6HR MAX TEMP:  63;

HAMMOND*       CLOUDY    61  55  82 CALM      30.12R
HOUMA*         CLOUDY    63  59  88 N12       30.10R
PORT FOURCHON* CLOUDY    63  61  94 N12       30.07R FOG

$$

MSZ070-080>082-181300-
SOUTHERN MISSISSIPPI

CITY           SKY/WX    TMP DP  RH WIND       PRES   REMARKS
MCCOMB         CLOUDY    59  56  89 NE5       30.13R
6HR MIN TEMP:  58; 6HR MAX TEMP:  59;

GULFPORT       LGT RAIN  62  59  90 N7        30.07R FOG
6HR MIN TEMP:  62; 6HR MAX TEMP:  63; 6HR PCP:  0.13;

BILOXI         LGT RAIN  60  60 100 N9        30.07R FOG
6HR MIN TEMP:  60; 6HR MAX TEMP:  61; 6HR PCP:  0.07;

PASCAGOULA     RAIN      60  59  96 NE12      30.06R FOG
6HR MIN TEMP:  60; 6HR MAX TEMP:  61; 6HR PCP:  0.25;

STENNIS ARPT*  LGT RAIN  55  54  94 MISG      30.08

$$

COASTAL OBSERVATIONS
LAKE AND NEARSHORE STATIONS

STATION/POSITION TIME  TEMP    WIND        PRES    WAVE
                       AIR SEA DIR/SP/G            HT/PER
                 (UTC) (F)     (DEG/KT/KT) (MB)    (FT/S)
PASCAGOULA       1200   61      30/ 10/ 14 1016.7
WAVELAND YACHT   1200   61 65   10/ 13/ 14 1017.5
GRAND ISLE       1200   63 66   30/ 14/ 18 1017.8
SOUTHWEST PASS   1200   64 58   10/ 13/ 15 1016.6
NEW CANAL        1200   63 63  360/ 11/ 13 1019.2
SHELL BEACH      1200   61 61   10/ 17/ 20 1017.8

OFFSHORE STATIONS

STATION/POSITION TIME  TEMP    WIND        PRES    WAVE
                       AIR SEA DIR/SP/G            HT/PER
                 (UTC) (F)     (DEG/KT/KT) (MB)    (FT/S)
64 S DAUPHIN ISL 1121   66 71   30/ 25/ 33 1014.5

$$




USA.gov is the U.S. government's official web portal to all federal, state and local government web resources and services.